FYC501 OSDI-ORBI

Flight info

Callsign FYC501
Flight time N/A
Altitude 35000
Route ABBAS G202 MODIK DCT RAPLU DCT SIGBI L200 SILBO
Aircraft A320/M-SDE3FGHIRWY/LB1

Departure

Time 2026-04-16 13:38
Airport Damascus International Airport (OSDI)

Arrival

Time N/A
Airport Baghdad International Airport / New Al Muthana Air Base (ORBI)
Time Latitude Longitude Altitude Speed Heading
2026-04-16 13:29 33.41223 36.51415 2013 ft 0 kts 227°
2026-04-16 13:30 33.41227 36.51419 2013 ft 2 kts 242°
2026-04-16 13:30 33.41235 36.51434 2013 ft 2 kts 222°
2026-04-16 13:31 33.41245 36.51447 2013 ft 2 kts 229°
2026-04-16 13:31 33.41255 36.51459 2013 ft 0 kts 226°
2026-04-16 13:31 33.41262 36.51469 2013 ft 2 kts 211°
2026-04-16 13:31 33.41276 36.51474 2013 ft 2 kts 185°
2026-04-16 13:32 33.41291 36.51472 2013 ft 2 kts 159°
2026-04-16 13:32 33.41301 36.51466 2013 ft 0 kts 139°
2026-04-16 13:32 33.41306 36.51459 2013 ft 0 kts 136°
2026-04-16 13:32 33.41307 36.51459 2013 ft 0 kts 136°
2026-04-16 13:34 33.41302 36.51465 2013 ft 2 kts 136°
2026-04-16 13:34 33.41275 36.51496 2013 ft 8 kts 136°
2026-04-16 13:34 33.41228 36.51556 2013 ft 10 kts 126°
2026-04-16 13:35 33.41195 36.51639 2013 ft 11 kts 106°
2026-04-16 13:35 33.41184 36.51743 2012 ft 13 kts 95°
2026-04-16 13:35 33.41176 36.51865 2009 ft 15 kts 94°
2026-04-16 13:35 33.41144 36.51993 2008 ft 17 kts 128°
2026-04-16 13:36 33.41053 36.52086 2008 ft 17 kts 140°
2026-04-16 13:36 33.40964 36.52180 2007 ft 17 kts 137°
2026-04-16 13:36 33.40871 36.52274 2005 ft 18 kts 141°
2026-04-16 13:36 33.40775 36.52375 2004 ft 13 kts 139°
2026-04-16 13:37 33.40696 36.52434 2004 ft 13 kts 165°
2026-04-16 13:37 33.40600 36.52422 2004 ft 14 kts 207°
2026-04-16 13:37 33.40493 36.52290 2005 ft 50 kts 230°
2026-04-16 13:37 33.40094 36.51741 2009 ft 121 kts 227°
2026-04-16 13:38 33.39398 36.50835 2110 ft 165 kts 230°
2026-04-16 13:38 33.38620 36.49840 2735 ft 164 kts 227°
2026-04-16 13:38 33.37832 36.48862 3354 ft 167 kts 225°
2026-04-16 13:38 33.37019 36.47886 4018 ft 169 kts 220°
2026-04-16 13:39 33.36086 36.47073 4661 ft 165 kts 208°
2026-04-16 13:39 33.34974 36.46816 4980 ft 172 kts 162°
2026-04-16 13:39 33.34079 36.47761 5286 ft 184 kts 112°
2026-04-16 13:39 33.34014 36.49316 5603 ft 200 kts 79°
2026-04-16 13:40 33.34372 36.50966 5916 ft 215 kts 79°
2026-04-16 13:40 33.34699 36.52786 6208 ft 233 kts 81°
2026-04-16 13:40 33.35003 36.54777 6469 ft 256 kts 82°
2026-04-16 13:40 33.35300 36.56936 6920 ft 270 kts 83°
2026-04-16 13:41 33.35597 36.59219 7377 ft 285 kts 83°
2026-04-16 13:41 33.35894 36.61543 8095 ft 290 kts 83°
2026-04-16 13:41 33.36191 36.63913 8910 ft 292 kts 83°
2026-04-16 13:41 33.36489 36.66317 9678 ft 296 kts 83°
2026-04-16 13:42 33.36787 36.68734 10407 ft 301 kts 83°
2026-04-16 13:42 33.37099 36.71264 10823 ft 317 kts 82°
2026-04-16 13:42 33.37422 36.73889 11230 ft 332 kts 82°
2026-04-16 13:42 33.37763 36.76659 11890 ft 338 kts 82°
2026-04-16 13:43 33.38102 36.79434 12613 ft 342 kts 82°
2026-04-16 13:43 33.38437 36.82223 13286 ft 346 kts 83°
2026-04-16 13:43 33.38657 36.85075 13983 ft 350 kts 86°
2026-04-16 13:43 33.38824 36.87933 14643 ft 354 kts 86°
2026-04-16 13:44 33.38987 36.90883 15285 ft 358 kts 86°
2026-04-16 13:44 33.39149 36.93833 15927 ft 362 kts 86°
2026-04-16 13:44 33.39313 36.96777 16540 ft 366 kts 86°
2026-04-16 13:44 33.39477 36.99730 17122 ft 370 kts 86°
2026-04-16 13:45 33.39643 37.02719 17687 ft 374 kts 86°
2026-04-16 13:45 33.39814 37.05804 18260 ft 378 kts 86°
2026-04-16 13:45 33.39980 37.08801 18802 ft 381 kts 86°
2026-04-16 13:45 33.40149 37.11898 19370 ft 384 kts 85°
2026-04-16 13:46 33.40322 37.15047 19915 ft 388 kts 85°
2026-04-16 13:46 33.40495 37.18206 20456 ft 391 kts 85°
2026-04-16 13:46 33.40665 37.21320 20987 ft 394 kts 85°
2026-04-16 13:46 33.40834 37.24451 21513 ft 397 kts 85°
2026-04-16 13:47 33.41010 37.27713 22057 ft 400 kts 85°
2026-04-16 13:47 33.41184 37.30956 22573 ft 404 kts 85°
2026-04-16 13:47 33.41355 37.34155 23045 ft 407 kts 85°
2026-04-16 13:47 33.41526 37.37376 23537 ft 411 kts 85°
2026-04-16 13:48 33.41701 37.40680 23889 ft 415 kts 85°
2026-04-16 13:48 33.41877 37.44042 23946 ft 416 kts 85°
2026-04-16 13:48 33.42048 37.47312 23957 ft 416 kts 85°
2026-04-16 13:48 33.42219 37.50588 23950 ft 416 kts 85°
2026-04-16 13:49 33.42392 37.53930 23957 ft 416 kts 85°
2026-04-16 13:49 33.42567 37.57335 23958 ft 417 kts 85°
2026-04-16 13:49 33.42738 37.60671 23950 ft 417 kts 85°
2026-04-16 13:49 33.42910 37.64073 23954 ft 417 kts 85°
2026-04-16 13:50 33.43080 37.67439 23955 ft 416 kts 86°
2026-04-16 13:50 33.43250 37.70837 23956 ft 417 kts 86°
2026-04-16 13:50 33.43419 37.74211 23960 ft 417 kts 86°
2026-04-16 13:50 33.43585 37.77546 23963 ft 417 kts 86°
2026-04-16 13:51 33.43749 37.80878 23962 ft 416 kts 86°
2026-04-16 13:51 33.43918 37.84300 23968 ft 417 kts 86°
2026-04-16 13:51 33.44085 37.87697 23966 ft 417 kts 86°
2026-04-16 13:51 33.44248 37.91048 23971 ft 416 kts 86°
2026-04-16 13:52 33.44414 37.94461 23973 ft 417 kts 86°
2026-04-16 13:52 33.44577 37.97854 23973 ft 416 kts 86°
2026-04-16 13:52 33.44740 38.01258 23974 ft 416 kts 86°
2026-04-16 13:52 33.44900 38.04608 23974 ft 416 kts 86°
2026-04-16 13:53 33.45059 38.07988 23972 ft 416 kts 86°
2026-04-16 13:53 33.45212 38.11252 23968 ft 417 kts 86°
2026-04-16 13:53 33.45375 38.14739 24145 ft 423 kts 86°
2026-04-16 13:53 33.45536 38.18162 24689 ft 425 kts 85°
2026-04-16 13:54 33.45726 38.21582 25207 ft 426 kts 85°
2026-04-16 13:54 33.45932 38.25023 25770 ft 426 kts 85°
2026-04-16 13:54 33.46140 38.28476 26403 ft 424 kts 85°
2026-04-16 13:54 33.46341 38.31858 26861 ft 426 kts 85°
2026-04-16 13:55 33.46541 38.35270 27252 ft 429 kts 85°
2026-04-16 13:55 33.46737 38.38679 27645 ft 432 kts 85°
2026-04-16 13:55 33.46936 38.42159 28014 ft 435 kts 85°
2026-04-16 13:55 33.47137 38.45680 28359 ft 438 kts 85°
2026-04-16 13:56 33.47337 38.49206 28729 ft 440 kts 85°
2026-04-16 13:56 33.47539 38.52796 29086 ft 443 kts 85°
2026-04-16 13:56 33.47739 38.56383 29426 ft 445 kts 85°
2026-04-16 13:56 33.47938 38.59969 29745 ft 447 kts 85°
2026-04-16 13:57 33.48121 38.63490 30018 ft 450 kts 86°
2026-04-16 13:57 33.48173 38.67030 30278 ft 453 kts 90°